Notices

What's New in latest Release from April 7th, 2021:

- Updated Glossary, including Speed of Maximum Gust, and Total Hourly Precipitation

- Updated national and regional climate services offices contacts and prices information

- Addition of station inventory lists for 1981-2010, 1971-2000, and 1961-1990 Normals.

If you haven't already, please take our survey and provide feedback about our website: https://eccc.sondage-survey.ca/f/LanguageSelection.aspx?s=442ca660-fcf1-47c0-95a9-59707d6fd709

Hourly Data Report for January 15, 2021

EDMUNDSTON
NEW BRUNSWICK
Current Station Operator: ECCC - MSC

47°25'00.000" N
68°19'28.040" W
154.20 m
8101303
71590
ERM

Download Data

Hourly Data (January 2021)
Hourly Data Report for January 15, 2021
TIME
LST
Temp Definition
°C
Dew Point Definition
°C
Rel Hum Definition
%
Precip. Amount Definition
mm

Wind Dir Definition
10's deg

Wind Spd Definition
km/h
Visibility Definition
km
Stn Press Definition
kPa
Hmdx Definition


Wind Chill Definition


Weather Definition


00:00 -4.5 LegendMM LegendMM 0.0   0   99.50     LegendNANA
01:00 -5.1 LegendMM LegendMM 0.0 0 1   99.54   -6 LegendNANA
02:00 -4.4 LegendMM LegendMM 0.0 28 3   99.59   -6 LegendNANA
03:00 -4.0 LegendMM LegendMM 0.0 29 1   99.70   -4 LegendNANA
04:00 -4.2 LegendMM LegendMM 0.0 26 3   99.73   -5 LegendNANA
05:00 -4.1 LegendMM LegendMM 0.0 33 2   99.75   -5 LegendNANA
06:00 -4.3 LegendMM LegendMM 0.0 26 2   99.79   -5 LegendNANA
07:00 -4.4 LegendMM LegendMM 0.0 0 1   99.86   -5 LegendNANA
08:00 -4.1 LegendMM LegendMM 0.0   0   99.90     LegendNANA
09:00 -3.9 LegendMM LegendMM 0.0 0 1   99.96   -4 LegendNANA
10:00 -3.3 LegendMM LegendMM 0.0 34 3   100.02   -5 LegendNANA
11:00 -2.0 LegendMM LegendMM 0.0 26 4   100.07   -3 LegendNANA
12:00 -0.4 LegendMM LegendMM 0.0 27 5   100.04   -2 LegendNANA
13:00 0.5 LegendMM LegendMM 0.0 28 6   100.00     LegendNANA
14:00 0.2 LegendMM LegendMM 0.0 28 7   100.04     LegendNANA
15:00 0.2 LegendMM LegendMM 0.0 31 5   100.08     LegendNANA
16:00 0.0 LegendMM LegendMM 0.0 36 3   100.13   -1 LegendNANA
17:00 -0.4 LegendMM LegendMM 0.0 4 3   100.16   -1 LegendNANA
18:00 -1.3 LegendMM LegendMM 0.0   0   100.16     LegendNANA
19:00 -1.6 LegendMM LegendMM 0.0 4 3   100.13   -3 LegendNANA
20:00 -2.9 LegendMM LegendMM 0.0 0 1   100.12   -3 LegendNANA
21:00 -5.1 LegendMM LegendMM 0.0 0 1   100.10   -6 LegendNANA
22:00 -5.5 LegendMM LegendMM 0.0   0   100.12     LegendNANA
23:00 -4.6 LegendMM LegendMM 0.0 3 2   100.13   -5 LegendNANA

Notes on Data Quality.

Legend

  • E = Estimated
  • M = Missing
  • NA = Not Available*
  • [empty] = Indicates an unobserved value
Date modified: